logo meteoveneto

Diretta Meteo Monte Cimone, Italiasabato 22 giugno ore 14:55

Mappa
Sereno 14 °C Sereno 24 Ore: T.min 10 T.max 17
Ponente Est/Sud-Est Km/h 11.1 Punto di rugiada: 8 °C Umidità: 67% Visibilità: 0 Km
Il sole sorge alle: 05:32 Il sole tramonta alle: 21:06
22 Giugno 2024 14:55 tempo osservato: Sereno Sereno 14 67 1021 vento: Nord E/SE 11.1
22 Giugno 2024 13:55 tempo osservato: Sereno Sereno 14 71 1021 vento: Nord E/SE 11.1
22 Giugno 2024 12:55 tempo osservato: Sereno Sereno 13 71 1021 vento: Nord E/SE 20.3
22 Giugno 2024 11:55 tempo osservato: Sereno Sereno 13 66 1021 vento: Nord E/SE 14.8
22 Giugno 2024 10:55 tempo osservato: Sereno Sereno 12 62 1021 vento: Nord SE 16.7
22 Giugno 2024 09:55 tempo osservato: Sereno Sereno 11 57 1021 vento: Nord SE 35.2
22 Giugno 2024 08:55 tempo osservato: Sereno Sereno 11 57 1022 vento: Nord S/SE 27.8
22 Giugno 2024 07:55 tempo osservato: Sereno Sereno 10 66 1021 vento: Nord SE 27.8
22 Giugno 2024 06:55 tempo osservato: Sereno Sereno 10 66 1021 vento: Nord S/SE 35.2
22 Giugno 2024 05:55 tempo osservato: Sereno Sereno 10 71 1021 vento: Nord S 18.5
22 Giugno 2024 04:55 tempo osservato: Sereno Sereno 10 57 1021 vento: Nord S 31.5
22 Giugno 2024 03:55 tempo osservato: Sereno Sereno 10 76 1021 vento: Nord S 25.9
22 Giugno 2024 02:55 tempo osservato: Sereno Sereno 11 46 1022 vento: Nord S/SE 24
22 Giugno 2024 01:55 tempo osservato: Sereno Sereno 11 40 1022 vento: Nord S/SE 25.9
22 Giugno 2024 00:55 tempo osservato: Sereno Sereno 11 37 1023 vento: Nord S/SE 18.5
21 Giugno 2024 23:55 tempo osservato: Sereno Sereno 11 43 1023 vento: Nord S/SE 18.5
21 Giugno 2024 22:55 tempo osservato: Sereno Sereno 10 57 1022 vento: Nord S 14.8
21 Giugno 2024 21:55 tempo osservato: Sereno Sereno 11 76 1023 vento: Nord SO 11.1
21 Giugno 2024 20:55 tempo osservato: Sereno Sereno 12 87 1023 vento: Nord S/SO 13
21 Giugno 2024 19:55 tempo osservato: Sereno Sereno 14 71 1024 vento: Nord S 11.1
21 Giugno 2024 18:55 tempo osservato: Sereno Sereno 15 67 1024 vento: Nord N/NE 13
21 Giugno 2024 17:55 tempo osservato: Sereno Sereno 16 58 1025 vento: Nord S/SE 22.2
21 Giugno 2024 16:55 tempo osservato: Sereno Sereno 16 55 1025 vento: Nord SE 24
21 Giugno 2024 15:55 tempo osservato: Sereno Sereno 17 48 1026 vento: Nord S/SE 16.7